Find Starlink 32798

NORAD ID: 63029 Int'l Des: 2025-034 Owner: SPXS Country: US Constellation: starlink operational
LEOCIRCULAR

Current View

Loading 3D Globe...

About Starlink 32798

Description loading...

Upcoming Passes

Passes for default location (London). Set your location on the main map for personalized predictions.

Altitude History

Loading altitude history...

Two-Line Element Set

1 63029U 25034A 26151.47356840 .00027750 00000-0 94548-3 0 9990
2 63029 53.1593 246.2299 0001272 126.0126 234.0993 15.30202969 71580
Epoch: May 31, 2026 • Age: 12 hours

Current Status

Altitude 481.6 km
Velocity 7.62 km/s
Sub-Earth Point -23.16°S, 155.67°W
Launch Date Feb 18, 2025
Age 1.2 years
Type internet

Technical Details

Classification Payload
Mass 730.00 kg
Dry Mass 700.00 kg
Total Mass 730.00 kg
Length 0.30 m
Diameter 4.10 m
Span 29.00 m
Shape Box + pan
Manufacturer SPXS
Bus Type Starlink V2M
Phase Status In Orbit
Owner/State SPXS/US

Most Searched